Regional Weather Roundup
Issued by NWS

Home | Current Version | Previous Version | Graphics & Text | Print | Product List | Glossary On
Versions: 1 2 3 4 5 6 7 8 9 10 11 12 13 14 15 16 17 18 19 20 21 22 23 24 25 26 27 28 29 30 31 32 33 34 35 36 37 38 39 40 41 42 43 44 45 46 47 48 49 50
186
ASUS43 KLOT 061908
RWRIL

ILLINOIS REGIONAL WEATHER ROUNDUP
NATIONAL WEATHER SERVICE CHICAGO/ROMEOVILLE IL
100 PM CST SAT FEB 06 2016

NOTE: "FAIR" INDICATES FEW OR NO CLOUDS BELOW 12,000 FEET WITH NO
SIGNIFICANT WEATHER AND/OR OBSTRUCTIONS TO VISIBILITY.

* THESE STATIONS ARE NOT UNDER NWS QUALITY CONTROL. THEY ALSO MAY NOT
  REPORT WEATHER SUCH AS PRECIPITATION OR FOG.

ILZ001-002-007-009-015-016-024-062000-
NORTHWEST ILLINOIS

CITY           SKY/WX    TMP DP  RH WIND       PRES   REMARKS
MOLINE         SUNNY     43  25  49 SW14      30.19F
STERLING*      SUNNY     43  28  56 W9        30.16F
SAVANNA*       SUNNY     39  27  62 SW9       30.19F WCI  32
$$

ILZ003-004-008-010-011-017-018-062000-
NORTH CENTRAL ILLINOIS

CITY           SKY/WX    TMP DP  RH WIND       PRES   REMARKS
ROCKFORD       MOSUNNY   40  27  59 W12       30.19F
FREEPORT*      SUNNY     35  26  69 SW10      30.19F WCI  28
ROCHELLE*      SUNNY     39  29  67 SW14      30.18F WCI  31
DE KALB*       PTSUNNY   38  30  72 SW14      30.18F WCI  30
PERU*          SUNNY     41  28  60 SW14      30.20F
$$

ILZ005-006-012>014-019>023-062000-
NORTHEAST ILLINOIS

CITY           SKY/WX    TMP DP  RH WIND       PRES   REMARKS
CHICAGO-OHARE  MOSUNNY   36  27  69 W13       30.18F WCI  27
CHICAGO-MIDWAY PTSUNNY   39  26  59 W12       30.19F WCI  32
AURORA         MOSUNNY   40  29  64 SW13      30.19F
LANSING*       PTSUNNY   39  28  65 SW16      30.21F WCI  30
JOLIET*        MOSUNNY   41  29  63 SW6       30.20F
WAUKEGAN       CLOUDY    33  27  78 SW8G17    30.16F WCI  26
DUPAGE AIRPORT MOSUNNY   39  27  62 W13       30.18F WCI  31
KANKAKEE*      SUNNY     40  29  63 SW13      30.22F
WHEELING       PTSUNNY   37  26  64 W14       30.19F WCI  28
MORRIS*        MOSUNNY   39  30  69 SW7       30.17F WCI  34
ROMEOVILLE*    PTSUNNY   39  29  68 SW9G17    30.19F WCI  33
NORTHERLY ISL    N/A     38  26  62 W6          N/A  WCI  33
$$

LMZ740>746-062000-
SOUTHERN LAKE MICHIGAN

STATION/POSITION SKY/WX   TEMP    WIND        PRES    VSBY  WAVE
                          AIR SEA DIR/SP/G                  HT/PER
                          (F)     (DEG/KT/KT) (MB)    (MI)  (FT/S)
HARRISON CRIB              36     250/ 12/ 17   N/A
BURNHAM HARBOR             38     250/ 10/ 14   N/A
CALUMET HARBOR             37     210/  9/ 16 1022.7F
BURNS HARBOR               36     230/ 11/ 19 1024.0F
MICHIGAN CITY              35     200/ 16/ 18   N/A
$$

ILZ025>027-034>036-040-047-049-050-058-095>099-062000-
WEST-CENTRAL ILLINOIS

CITY           SKY/WX    TMP DP  RH WIND       PRES   REMARKS
QUINCY         SUNNY     46  26  45 SW8       30.21F
GALESBURG*     SUNNY     44  29  55 S9        30.19F
MACOMB*        SUNNY     46  29  52 SW12      30.23F
JACKSONVILLE*  SUNNY     49  31  49 S8        30.22F
PITTSFIELD*    SUNNY     47  28  46 SW8       30.22F
$$

ILZ028>032-037-038-041>044-048-051>054-059>061-062000-
CENTRAL ILLINOIS

CITY           SKY/WX    TMP DP  RH WIND       PRES   REMARKS
PONTIAC        SUNNY     42  32  66 SW12      30.22F
BLOOMINGTON    SUNNY     45  30  55 SW15      30.22F
DECATUR        SUNNY     46  26  45 SW13      30.24F
PEORIA         SUNNY     44  27  51 S10       30.21F
LACON*         SUNNY     42  23  46 SW12G17   30.20F
LINCOLN*       SUNNY     45  31  59 S10       30.23F
SPRINGFIELD    SUNNY     49  28  44 S10       30.23F
TAYLORVILLE    SUNNY     45  32  61 S13       30.24F
$$

ILZ033-039-045-046-055>057-062-063-062000-
EAST-CENTRAL ILLINOIS

CITY           SKY/WX    TMP DP  RH WIND       PRES   REMARKS
CHAMPAIGN      SUNNY     44  30  57 SW10      30.24F
RANTOUL*       SUNNY     44  31  60 SW8       30.24F
MATTOON        SUNNY     45  26  47 S8        30.24F
PARIS*         SUNNY     44  30  57 SW8       30.27F
$$

ILZ079-100>102-062000-
SOUTHWEST ILLINOIS

CITY           SKY/WX    TMP DP  RH WIND       PRES   REMARKS
ALTON          SUNNY     48  27  43 S5        30.26F
BELLEVILLE     SUNNY     54  28  36 S8        30.25F
CAHOKIA*       SUNNY     53  30  41 VRB6      30.25F
SPARTA*        SUNNY     53  24  31 W5        30.28F
$$

ILZ064>066-069>071-074>076-080>082-084>086-088>090-092>094-062000-
SOUTH-CENTRAL ILLINOIS

CITY           SKY/WX    TMP DP  RH WIND       PRES   REMARKS
CARBONDALE     SUNNY     54  18  24 VRB7      30.28F
CAIRO*         SUNNY     52  32  46 SW5       30.31F
EFFINGHAM*     SUNNY     48  31  52 SE6       30.27F
MARION         SUNNY     54  21  28 NW7       30.29F
MT. VERNON     SUNNY     52  28  40 SW7       30.28F
CENTRALIA*     SUNNY     51  26  37 SW6       30.26F
SALEM*         SUNNY     52  27  38 S6        30.26F
METROPOLIS*    SUNNY     54  27  35 W9        30.31F
$$

ILZ067-068-072-073-078-083-087-091-062000-
SOUTHEAST ILLINOIS

CITY           SKY/WX    TMP DP  RH WIND       PRES   REMARKS
LAWRENCEVILLE  SUNNY     47  28  47 SE3       30.28F
FLORA*         SUNNY     51  29  42 S7        30.28F
FAIRFIELD*     SUNNY     48  30  49 S5        30.27F
HARRISBURG*    SUNNY     52  27  38 W5        30.30F
ROBINSON*      SUNNY     46  28  48 S6        30.29F
CARMI*         SUNNY     50  31  47 S3        30.29F
$$

ABBREVIATIONS USED IN REMARKS
   TC - TEMPERATURE IN CELSIUS
  WCI - WIND CHILL INDEX
   HX - HEAT INDEX
  VSB - VISIBILITY
$$





USA.gov is the U.S. government's official web portal to all federal, state and local government web resources and services.